Location: Düngen
(52.0952°N, 10.0219°E)
Time: 18:28:59
(UTC+00:00)

SL-08 R/B - Pass Details

Date: 11 March 2026
Orbit: 667 x 729 km, 98.5° (Epoch: 20 April)

Event Time Altitude Azimuth Distance (km) Brightness Sun altitude
Rises 20:27:16 0° 11° (N) 3,034 6.9 -28.4°
Reaches altitude 10° 20:29:32 10° 7° (N) 2,121 6.1 -28.7°
Maximum altitude 20:34:01 51° 292° (WNW) 855 4.0 -29.3°
Enters shadow 20:34:06 51° 288° (WNW) 856 4.0 -29.3°
